Weather History for Cheyenne, WY

Change the Weather History Date:

Monday, January 7, 2013

  Actual Average Record
Temperature  
Mean Temperature 37 °F 29 °F  
Max Temperature 49 °F 40 °F 63 °F (2003)
Min Temperature 24 °F 18 °F -27 °F (1886)
Degree Days  
Heating Degree Days 28 36  
Month to date heating degree days 277 253  
Since 1 July heating degree days 2979 3156  
Cooling Degree Days 0 0  
Month to date cooling degree days 0 0  
Year to date cooling degree days 0 0  
Moisture  
Dew Point 4 °F    
Average Humidity 31    
Maximum Humidity 50    
Minimum Humidity 11    
Precipitation  
Precipitation 0.00 in 0.01 in 0.91 in (1992)
Month to date precipitation T 0.08  
Year to date precipitation T 0.08  
Snow  
Snow 0.00 in 0.10 in 12.70 in (1992)
Month to date snowfall T 1.4  
Since 1 July snowfall 25.4 24.1  
Snow Depth T in    
Sea Level Pressure  
Sea Level Pressure 29.90 in    
Wind  
Wind Speed 11 mph (WSW)    
Max Wind Speed 29 mph    
Max Gust Speed 36 mph    
Visibility 10 miles    
Events      
T = Trace of Precipitation, MM = Missing Value Source: NWS Daily Summary

Daily Weather History Graph

Daily Weather History Graph

Search for Another Location

Airport:

Trip Planner

Search our weather history database for the weather conditions in past years. The results will help you decide how hot, cold, wet, or windy it might be!

Date:

Astronomy

Jan. 07, 2013 Rise Set
Actual Time 7:24 AM MST 4:47 PM MST
Civil Twilight 6:53 AM MST 5:17 PM MST
Nautical Twilight 6:19 AM MST 5:52 PM MST
Astronomical Twilight 5:46 AM MST 6:25 PM MST
Moon 2:50 AM MST (1/7) 1:00 PM MST (1/7)
Length of Visible Light 10h 24m
Length of Day
9h 22m
Waning Crescent, 22% of the Moon is Illuminated
Jan 7
Waning Crescent
Jan 11
New
Jan 18
First Quarter
Jan 26
Full
Feb 3
Last Quarter

Hourly Weather History & Observations

Time (MST) Temp. Windchill Dew Point Humidity Pressure Visibility Wind Dir Wind Speed Gust Speed Precip Events Conditions
12:53 AM 34.0 °F 27.2 °F 5.0 °F 30% 29.89 in 10.0 mi NW 8.1 mph - N/A   Clear
1:53 AM 32.0 °F 22.5 °F 5.0 °F 32% 29.89 in 10.0 mi West 12.7 mph - N/A   Clear
2:53 AM 34.0 °F 27.2 °F 1.9 °F 26% 29.92 in 10.0 mi NNW 8.1 mph - N/A   Clear
3:53 AM 33.1 °F 28.7 °F 1.0 °F 26% 29.93 in 10.0 mi WNW 4.6 mph - N/A   Clear
4:53 AM 28.9 °F 25.2 °F 3.0 °F 33% 29.98 in 10.0 mi WNW 3.5 mph - N/A   Clear
5:53 AM 28.0 °F 17.5 °F 3.9 °F 36% 30.04 in 10.0 mi WSW 12.7 mph - N/A   Clear
6:53 AM 37.9 °F 26.8 °F -2.9 °F 18% 29.98 in 10.0 mi WNW 24.2 mph 31.1 mph N/A   Clear
7:53 AM 36.0 °F 25.6 °F -0.9 °F 21% 29.99 in 10.0 mi West 18.4 mph - N/A   Clear
8:53 AM 37.9 °F 31.5 °F -0.9 °F 19% 29.97 in 10.0 mi West 9.2 mph - N/A   Clear
9:53 AM 37.0 °F 28.9 °F 3.0 °F 24% 30.01 in 10.0 mi West 12.7 mph - N/A   Clear
10:53 AM 42.1 °F 37.1 °F 3.9 °F 21% 29.94 in 10.0 mi WSW 8.1 mph - N/A   Clear
11:53 AM 48.9 °F - -2.9 °F 12% 29.86 in 10.0 mi SSW 13.8 mph - N/A   Clear
12:53 PM 48.9 °F - -4.0 °F 11% 29.84 in 10.0 mi SSW 17.3 mph - N/A   Clear
1:53 PM 46.9 °F - -0.9 °F 14% 29.84 in 10.0 mi SSW 9.2 mph - N/A   Clear
2:53 PM 44.1 °F 38.1 °F 3.9 °F 19% 29.85 in 10.0 mi SSW 11.5 mph - N/A   Clear
3:53 PM 41.0 °F 34.7 °F 5.0 °F 23% 29.88 in 10.0 mi SW 10.4 mph - N/A   Clear
4:53 PM 35.1 °F 30.1 °F 8.1 °F 33% 29.93 in 10.0 mi SSW 5.8 mph - N/A   Clear
5:53 PM 30.9 °F 22.8 °F 9.0 °F 40% 29.94 in 10.0 mi SW 9.2 mph - N/A   Clear
6:53 PM 28.9 °F 19.8 °F 10.0 °F 45% 29.89 in 10.0 mi SW 10.4 mph - N/A   Clear
7:53 PM 30.9 °F 22.8 °F 10.0 °F 42% 29.87 in 10.0 mi SW 9.2 mph - N/A   Clear
8:53 PM 28.0 °F 18.1 °F 10.9 °F 49% 29.85 in 10.0 mi WSW 11.5 mph - N/A   Clear
9:53 PM 28.0 °F 17.5 °F 12.9 °F 53% 29.85 in 10.0 mi West 12.7 mph - N/A   Mostly Cloudy
10:53 PM 34.0 °F 27.2 °F 7.0 °F 32% 29.77 in 10.0 mi SSW 8.1 mph - N/A   Partly Cloudy
11:53 PM 37.9 °F 28.9 °F 6.1 °F 27% 29.70 in 10.0 mi West 16.1 mph 24.2 mph N/A   Clear